This is the latest recevied weather packets stored in our database for station/object OH2EGI-2. If no packets are shown the sender has not sent any weather packets the latest 10 day(s).
| Time | Temp. | Humidity | Pressure | Rain* | Wind** | Luminosity | Snow |
|---|---|---|---|---|---|---|---|
| 1777450621 | 9.44° C | 34% | 1017 hPa | 0 mm | - | - | - |
| 1777450321 | 10° C | 34% | 1017 hPa | 0 mm | - | - | - |
| 1777450021 | 9.44° C | 35% | 1016.9 hPa | 0 mm | - | - | - |
| 1777449721 | 9.44° C | 34% | 1017 hPa | 0 mm | - | - | - |
| 1777449421 | 9.44° C | 34% | 1017 hPa | 0 mm | - | - | - |
| 1777449121 | 9.44° C | 34% | 1017 hPa | 0 mm | - | - | - |
| 1777448821 | 9.44° C | 33% | 1017.1 hPa | 0 mm | - | - | - |
| 1777448521 | 10.56° C | 33% | 1016.9 hPa | 0 mm | - | - | - |
| 1777448221 | 10.56° C | 34% | 1016.8 hPa | 0 mm | - | - | - |
| 1777447921 | 10° C | 34% | 1016.9 hPa | 0 mm | - | - | - |
| 1777447621 | 10° C | 33% | 1016.9 hPa | 0 mm | - | - | - |
| 1777447321 | 10.56° C | 33% | 1016.9 hPa | 0 mm | - | - | - |
| 1777447021 | 11.11° C | 34% | 1016.9 hPa | 0 mm | - | - | - |
| 1777446721 | 10.56° C | 35% | 1016.8 hPa | 0 mm | - | - | - |
| 1777446421 | 10° C | 36% | 1016.9 hPa | 0 mm | - | - | - |
| 1777446121 | 9.44° C | 37% | 1016.8 hPa | 0 mm | - | - | - |
| 1777445821 | 8.89° C | 38% | 1016.8 hPa | 0 mm | - | - | - |
| 1777445521 | 8.89° C | 38% | 1016.9 hPa | 0 mm | - | - | - |
| 1777445221 | 8.33° C | 40% | 1016.8 hPa | 0 mm | - | - | - |
| 1777444921 | 7.22° C | 41% | 1016.7 hPa | 0 mm | - | - | - |
| 1777444621 | 6.67° C | 42% | 1016.9 hPa | 0 mm | - | - | - |
| 1777444321 | 6.11° C | 43% | 1016.9 hPa | 0 mm | - | - | - |
| 1777444021 | 6.11° C | 42% | 1016.8 hPa | 0 mm | - | - | - |
| 1777443721 | 6.67° C | 42% | 1016.9 hPa | 0 mm | - | - | - |
| 1777443421 | 7.22° C | 41% | 1016.9 hPa | 0 mm | - | - | - |
* Rain latest hour (hover to see other rain measurements)
** Current wind speed in m/s (hover to see current wind gust speed)